Epoch,demod_status_bits,ebno,lock_status,signal_level,viterbi_ber
1663483897,C;S;V;F,12.6,0x00c000,-39.2,
1663483898,,12.6,0x00c000,-39.1,0.00e-0
1663483899,C;S;V;F,13.5,0x00c000,-38.5,1.36e-6
1663483900,C;S;V;F,13.1,0x00c000,-38.7,7.57e-7
1663483901,C;S;V;F,13.1,0x00c000,-38.4,1.51e-7
1663483902,C;S;V;F,12.6,0x00c000,-39.2,1.51e-7
1663483903,C;S;V;F,,0x00c000,-38.4,3.03e-7
1663483904,C;S;V;F,13.4,0x00c000,,6.06e-7
1663483905,C;S;V;F,13.0,0x00c000,-38.8,1.51e-7
1663483906,C;S;V;F,13.3,0x00c000,-38.3,3.03e-7
1663483907,C;S;V;F,13.2,0x00c000,-38.6,0.00e-0
1663483908,C;S;V;F,13.0,0x00c000,-38.4,0.00e-0
1663483909,C;S;V;F,13.8,0x00c000,-38.3,0.00e-0
1663483910,C;S;V;F,13.5,0x00c000,-38.1,0.00e-0
1663483911,C;S;V;F,13.7,0x00c000,-38.4,0.00e-0
1663483912,C;S;V;F,13.4,0x00c000,-38.0,0.00e-0
1663483913,C;S;V;F,13.6,0x00c000,-38.5,0.00e-0
1663483914,C;S;V;F,13.6,0x00c000,-38.0,
1663483915,,13.8,0x00c000,-37.9,0.00e-0
1663483916,C;S;V;F,13.7,0x00c000,-38.2,0.00e-0
1663483917,C;S;V;F,,0x00c000,-37.7,0.00e-0
1663483918,C;S;V;F,14.3,0x00c000,-38.3,0.00e-0
1663483919,C;S;V;F,13.7,0x00c000,,0.00e-0
1663483920,C;S;V;F,13.7,0x00c000,-38.2,0.00e-0
1663483921,C;S;V;F,14.2,0x00c000,-37.2,0.00e-0
1663483922,C;S;V;F,14.6,0x00c000,-37.4,0.00e-0
1663483923,C;S;V;F,14.2,0x00c000,-37.9,0.00e-0
1663483924,C;S;V;F,14.5,0x00c000,-37.4,0.00e-0
1663483925,C;S;V;F,14.4,0x00c000,-37.5,0.00e-0
1663483926,C;S;V;F,14.2,0x00c000,-37.9,0.00e-0
1663483927,,14.2,0x00c000,-37.1,
1663483928,C;S;V;F,14.4,0x00c000,-37.8,0.00e-0
1663483929,C;S;V;F,14.2,0x00c000,-37.6,0.00e-0
1663483930,C;S;V;F,14.5,0x00c000,-37.4,0.00e-0
1663483931,C;S;V;F,,0x00c000,-37.9,0.00e-0
1663483932,C;S;V;F,14.7,0x00c000,-37.8,0.00e-0
1663483933,C;S;V;F,14.5,0x00c000,,0.00e-0
1663483934,C;S;V;F,14.4,0x00c000,-37.5,0.00e-0
1663483935,C;S;V;F,14.4,0x00c000,-37.6,0.00e-0
1663483936,C;S;V;F,14.5,0x00c000,-37.2,0.00e-0
1663483937,C;S;V;F,14.5,0x00c000,-37.2,0.00e-0
1663483938,C;S;V;F,14.3,0x00c000,-37.5,0.00e-0
1663483939,C;S;V;F,14.7,0x00c000,-37.1,0.00e-0
1663483940,C;S;V;F,14.8,0x00c000,-37.2,0.00e-0
1663483941,C;S;V;F,14.7,0x00c000,-37.3,0.00e-0
1663483942,C;S;V;F,14.9,0x00c000,-36.8,0.00e-0
1663483943,C;S;V;F,14.8,0x00c000,-37.9,
1663483944,,13.9,0x00c000,-37.5,0.00e-0
1663483945,C;S;V;F,14.4,0x00c000,-37.7,0.00e-0
1663483946,C;S;V;F,,0x00c000,-37.6,0.00e-0
1663483947,C;S;V;F,14.6,0x00c000,-37.2,0.00e-0
1663483948,C;S;V;F,14.7,0x00c000,,0.00e-0
1663483949,C;S;V;F,14.4,0x00c000,-37.7,0.00e-0
1663483950,C;S;V;F,14.4,0x00c000,-37.4,0.00e-0
1663483951,C;S;V;F,14.4,0x00c000,-37.5,0.00e-0
1663483952,C;S;V;F,14.5,0x00c000,-37.7,0.00e-0
1663483953,C;S;V;F,14.5,0x00c000,-37.6,0.00e-0
1663483954,C;S;V;F,14.7,0x00c000,-37.1,0.00e-0
1663483955,C;S;V;F,14.3,0x00c000,-37.5,0.00e-0
1663483956,C;S;V;F,14.5,0x00c000,-37.4,
1663483957,,,,,0.00e-0
1663483959,C;S;V;F,14.6,0x00c000,-37.2,0.00e-0
1663483960,C;S;V;F,15.1,0x00c000,-36.9,0.00e-0
1663483961,C;S;V;F,14.8,0x00c000,-36.9,0.00e-0
1663483962,C;S;V;F,15.2,0x00c000,-36.7,0.00e-0
1663483963,C;S;V;F,15.3,0x00c000,-36.8,0.00e-0
1663483964,C;S;V;F,15.3,0x00c000,-36.8,0.00e-0
1663483965,C;S;V;F,14.8,0x00c000,-37.2,0.00e-0
1663483966,C;S;V;F,15.2,0x00c000,-36.8,
1663483967,,15.5,0x00c000,-36.6,0.00e-0
1663483968,C;S;V;F,15.5,0x00c000,-36.5,0.00e-0
1663483969,C;S;V;F,15.4,0x00c000,-36.7,0.00e-0
1663483970,C;S;V;F,15.3,0x00c000,-36.9,0.00e-0
1663483971,C;S;V;F,,0x00c000,-36.6,0.00e-0
1663483972,C;S;V;F,15.3,0x00c000,,0.00e-0
1663483973,C;S;V;F,15.5,0x00c000,-36.6,0.00e-0
1663483974,C;S;V;F,15.4,0x00c000,-36.4,0.00e-0
1663483975,C;S;V;F,15.8,0x00c000,-36.8,0.00e-0
1663483976,C;S;V;F,15.3,0x00c000,-36.6,0.00e-0
1663483977,C;S;V;F,15.6,0x00c000,-36.5,0.00e-0
1663483978,C;S;V;F,15.8,0x00c000,-36.4,0.00e-0
1663483979,C;S;V;F,15.3,0x00c000,-36.5,0.00e-0
1663483980,C;S;V;F,15.9,0x00c000,-36.4,0.00e-0
1663483981,C;S;V;F,15.5,0x00c000,-36.8,0.00e-0
1663483982,C;S;V;F,15.7,0x00c000,-36.4,0.00e-0
1663483983,C;S;V;F,15.8,0x00c000,-36.8,0.00e-0
1663483984,C;S;V;F,15.3,0x00c000,-36.7,
1663483985,,15.7,0x00c000,-36.5,0.00e-0
1663483986,C;S;V;F,15.4,0x00c000,-36.8,0.00e-0
1663483987,C;S;V;F,15.6,0x00c000,-36.4,0.00e-0
1663483988,C;S;V;F,,0x00c000,-36.5,0.00e-0
1663483989,C;S;V;F,15.6,0x00c000,-36.6,0.00e-0
1663483990,C;S;V;F,15.8,0x00c000,-36.7,0.00e-0
1663483991,C;S;V;F,15.6,0x00c000,,0.00e-0
1663483992,C;S;V;F,15.3,0x00c000,-36.9,0.00e-0
1663483993,C;S;V;F,15.0,0x00c000,-37.1,0.00e-0
1663483994,C;S;V;F,15.4,0x00c000,-36.6,0.00e-0
1663483995,C;S;V;F,15.8,0x00c000,-36.3,0.00e-0
1663483996,C;S;V;F,15.9,0x00c000,-36.4,0.00e-0
1663483997,C;S;V;F,15.9,0x00c000,-36.3,0.00e-0
1663483998,C;S;V;F,15.8,0x00c000,-36.4,0.00e-0
1663483999,C;S;V;F,15.7,0x00c000,-36.4,0.00e-0
1663484000,,15.8,0x00c000,-36.4,
1663484001,C;S;V;F,15.9,0x00c000,-36.4,0.00e-0
1663484002,C;S;V;F,15.8,0x00c000,-36.6,0.00e-0
1663484003,C;S;V;F,15.9,0x00c000,-36.4,0.00e-0
1663484004,C;S;V;F,,0x00c000,-36.4,0.00e-0
1663484005,C;S;V;F,16.0,0x00c000,,0.00e-0
1663484006,C;S;V;F,16.2,0x00c000,-36.2,0.00e-0
1663484007,C;S;V;F,15.8,0x00c000,-36.4,0.00e-0
1663484008,C;S;V;F,15.7,0x00c000,-36.4,0.00e-0
1663484009,C;S;V;F,16.0,0x00c000,-36.3,0.00e-0
1663484010,C;S;V;F,16.1,0x00c000,-36.0,0.00e-0
1663484011,C;S;V;F,16.1,0x00c000,-36.1,0.00e-0
1663484012,C;S;V;F,16.1,0x00c000,-36.4,0.00e-0
1663484013,C;S;V;F,16.0,0x00c000,-36.5,0.00e-0
1663484014,C;S;V;F,16.2,0x00c000,-36.1,0.00e-0
1663484015,C;S;V;F,16.7,0x00c000,-36.0,0.00e-0
1663484016,C;S;V;F,16.1,0x00c000,-36.3,0.00e-0
1663484017,C;S;V;F,16.3,0x00c000,-35.8,
1663484018,C;S;V;F,16.0,0x00c000,-36.3,0.00e-0
1663484019,,16.0,0x00c000,-36.4,0.00e-0
1663484020,C;S;V;F,,,,0.00e-0
1663484021,,,0x00c000,-36.3,
1663484022,C;S;V;F,16.0,0x00c000,-36.1,0.00e-0
1663484023,C;S;V;F,16.3,0x00c000,,0.00e-0
1663484024,C;S;V;F,16.3,0x00c000,-36.2,0.00e-0
1663484025,C;S;V;F,15.9,0x00c000,-36.3,0.00e-0
1663484026,C;S;V;F,16.0,0x00c000,-36.4,0.00e-0
1663484027,C;S;V;F,16.0,0x00c000,-35.9,0.00e-0
1663484028,C;S;V;F,16.3,0x00c000,-36.0,0.00e-0
1663484029,C;S;V;F,16.4,0x00c000,-36.0,0.00e-0
1663484030,C;S;V;F,16.5,0x00c000,-36.0,0.00e-0
1663484031,C;S;V;F,16.5,0x00c000,-35.8,0.00e-0
1663484032,C;S;V;F,16.7,0x00c000,-35.7,0.00e-0
1663484033,C;S;V;F,16.5,0x00c000,-35.8,
1663484034,,16.5,0x00c000,-35.9,0.00e-0
1663484035,C;S;V;F,16.5,0x00c000,-35.6,0.00e-0
1663484036,C;S;V;F,16.3,0x00c000,-35.8,0.00e-0
1663484037,C;S;V;F,,0x00c000,-35.8,0.00e-0
1663484038,C;S;V;F,16.4,0x00c000,-35.7,0.00e-0
1663484039,C;S;V;F,16.4,0x00c000,,0.00e-0
1663484040,C;S;V;F,16.7,0x00c000,-35.5,0.00e-0
1663484041,C;S;V;F,16.8,0x00c000,-35.5,0.00e-0
1663484042,C;S;V;F,16.3,0x00c000,-36.0,0.00e-0
1663484043,C;S;V;F,16.5,0x00c000,-35.8,0.00e-0
1663484044,C;S;V;F,16.4,0x00c000,-35.6,0.00e-0
1663484045,C;S;V;F,16.7,0x00c000,-35.6,0.00e-0
1663484046,C;S;V;F,16.5,0x00c000,-35.7,0.00e-0
1663484047,C;S;V;F,16.8,0x00c000,-35.4,0.00e-0
1663484048,C;S;V;F,16.7,0x00c000,-35.3,0.00e-0
1663484049,C;S;V;F,16.9,0x00c000,-35.4,
1663484050,,16.9,0x00c000,-35.3,0.00e-0
1663484051,C;S;V;F,17.0,0x00c000,-35.1,0.00e-0
1663484052,C;S;V;F,17.1,0x00c000,-35.2,0.00e-0
1663484053,C;S;V;F,,0x00c000,-35.1,0.00e-0
1663484054,C;S;V;F,17.1,0x00c000,,0.00e-0
1663484055,C;S;V;F,17.2,0x00c000,-35.0,0.00e-0
1663484056,C;S;V;F,17.0,0x00c000,-34.9,0.00e-0
1663484057,C;S;V;F,17.2,0x00c000,-35.0,0.00e-0
1663484058,C;S;V;F,17.2,0x00c000,-34.9,0.00e-0
1663484059,C;S;V;F,17.2,0x00c000,-35.0,0.00e-0
1663484060,C;S;V;F,17.0,0x00c000,-34.9,0.00e-0
1663484061,C;S;V;F,17.3,0x00c000,-35.0,0.00e-0
1663484062,C;S;V;F,17.0,0x00c000,-34.8,0.00e-0
1663484063,C;S;V;F,17.1,0x00c000,-34.8,0.00e-0
1663484064,C;S;V;F,17.2,0x00c000,-35.2,0.00e-0
1663484065,C;S;V;F,16.9,0x00c000,-35.2,0.00e-0
1663484066,C;S;V;F,16.9,0x00c000,-35.2,
1663484067,,17.1,0x00c000,-35.0,0.00e-0
1663484068,C;S;V;F,17.2,0x00c000,-35.2,0.00e-0
1663484069,C;S;V;F,,0x00c000,-35.3,0.00e-0
1663484070,C;S;V;F,17.2,0x00c000,-35.1,0.00e-0
1663484071,C;S;V;F,17.1,0x00c000,,0.00e-0
1663484072,C;S;V;F,17.3,0x00c000,-35.2,0.00e-0
1663484073,C;S;V;F,16.8,0x00c000,-35.5,0.00e-0
1663484074,C;S;V;F,17.2,0x00c000,-35.3,0.00e-0
1663484075,C;S;V;F,16.9,0x00c000,-35.3,0.00e-0
1663484076,C;S;V;F,16.8,0x00c000,-35.5,0.00e-0
1663484077,C;S;V;F,16.8,0x00c000,-35.8,0.00e-0
1663484078,C;S;V;F,16.6,0x00c000,-35.5,0.00e-0
1663484079,C;S;V;F,16.5,0x00c000,-35.4,0.00e-0
1663484080,C;S;V;F,16.7,0x00c000,-35.3,0.00e-0
1663484081,C;S;V;F,16.8,0x00c000,-34.9,0.00e-0
1663484083,,17.4,0x00c000,-34.6,
1663484084,C;S;V;F,,0x00c000,-34.6,0.00e-0
1663484085,C;S;V;F,17.5,0x00c000,,0.00e-0
1663484086,C;S;V;F,17.4,0x00c000,-34.6,0.00e-0
1663484087,C;S;V;F,17.5,0x00c000,-34.7,0.00e-0
1663484088,C;S;V;F,17.8,0x00c000,-34.7,0.00e-0
1663484089,C;S;V;F,17.8,0x00c000,-34.5,0.00e-0
1663484090,C;S;V;F,17.6,0x00c000,-34.5,0.00e-0
1663484091,C;S;V;F,17.7,0x00c000,-34.5,0.00e-0
1663484092,C;S;V;F,17.8,0x00c000,-34.5,0.00e-0
1663484096,,18.0,0x00c000,-33.7,
1663484097,C;S;V;F,18.2,0x00c000,-33.6,0.00e-0
1663484098,C;S;V;F,18.2,0x00c000,-33.9,0.00e-0
1663484099,C;S;V;F,,0x00c000,-33.9,0.00e-0
1663484100,C;S;V;F,18.1,0x00c000,,0.00e-0
1663484101,C;S;V;F,17.9,0x00c000,-34.1,0.00e-0
1663484102,C;S;V;F,18.1,0x00c000,-34.0,0.00e-0
1663484103,C;S;V;F,17.8,0x00c000,-34.2,0.00e-0
1663484104,C;S;V;F,18.0,0x00c000,-33.9,0.00e-0
1663484105,C;S;V;F,17.9,0x00c000,-34.0,0.00e-0
1663484106,C;S;V;F,17.9,0x00c000,-33.9,0.00e-0
1663484107,C;S;V;F,18.0,0x00c000,-33.6,0.00e-0
1663484108,C;S;V;F,18.0,0x00c000,-33.6,0.00e-0
1663484109,C;S;V;F,18.2,0x00c000,-33.6,0.00e-0
1663484110,C;S;V;F,18.0,0x00c000,-33.9,
1663484111,,18.2,0x00c000,-33.9,0.00e-0
1663484112,C;S;V;F,17.7,0x00c000,-34.0,0.00e-0
1663484113,C;S;V;F,17.8,0x00c000,-34.0,0.00e-0
1663484114,C;S;V;F,,0x00c000,-33.9,0.00e-0
1663484115,C;S;V;F,17.9,0x00c000,,0.00e-0
1663484116,C;S;V;F,17.9,0x00c000,-34.1,0.00e-0
1663484117,C;S;V;F,17.9,0x00c000,-34.0,0.00e-0
1663484118,C;S;V;F,17.9,0x00c000,-34.0,0.00e-0
1663484119,C;S;V;F,18.0,0x00c000,-34.1,0.00e-0
1663484120,C;S;V;F,18.0,0x00c000,-34.1,0.00e-0
1663484121,C;S;V;F,17.8,0x00c000,-34.4,0.00e-0
1663484122,C;S;V;F,17.8,0x00c000,-34.3,0.00e-0
1663484123,C;S;V;F,17.3,0x00c000,-34.3,
1663484124,,17.6,0x00c000,-34.7,0.00e-0
1663484125,C;S;V;F,17.4,0x00c000,-34.8,0.00e-0
1663484126,C;S;V;F,17.2,0x00c000,-34.9,0.00e-0
1663484127,C;S;V;F,17.2,0x00c000,-35.2,0.00e-0
1663484128,C;S;V;F,,0x00c000,-35.1,0.00e-0
1663484129,C;S;V;F,17.3,0x00c000,-35.2,0.00e-0
1663484130,C;S;V;F,17.1,0x00c000,,0.00e-0
1663484131,C;S;V;F,17.1,0x00c000,-35.2,0.00e-0
1663484132,C;S;V;F,17.4,0x00c000,-35.1,0.00e-0
1663484133,C;S;V;F,17.4,0x00c000,-35.0,0.00e-0
1663484134,C;S;V;F,17.2,0x00c000,-34.9,0.00e-0
1663484135,C;S;V;F,17.6,0x00c000,-34.8,0.00e-0
1663484136,C;S;V;F,17.5,0x00c000,-34.7,0.00e-0
1663484137,C;S;V;F,17.5,0x00c000,-34.8,0.00e-0
1663484138,C;S;V;F,17.5,0x00c000,-34.7,0.00e-0
1663484139,C;S;V;F,17.1,0x00c000,-34.8,0.00e-0
1663484140,C;S;V;F,17.4,0x00c000,-34.8,0.00e-0
1663484141,C;S;V;F,17.5,0x00c000,-34.8,0.00e-0
1663484142,C;S;V;F,17.3,0x00c000,-35.1,0.00e-0
1663484143,C;S;V;F,17.3,0x00c000,-35.1,0.00e-0
1663484144,,17.2,0x00c000,-35.1,
1663484145,C;S;V;F,,,,0.00e-0
1663484147,C;S;V;F,16.9,0x00c000,-35.5,0.00e-0
1663484148,,17.2,0x00c000,-35.6,
1663484149,C;S;V;F,16.8,0x00c000,-35.6,0.00e-0
1663484150,C;S;V;F,16.6,0x00c000,-36.1,0.00e-0
1663484151,C;S;V;F,16.7,0x00c000,-36.0,0.00e-0
1663484152,C;S;V;F,,0x00c000,-36.0,0.00e-0
1663484153,C;S;V;F,16.7,0x00c000,-36.0,0.00e-0
1663484154,C;S;V;F,16.5,0x00c000,,0.00e-0
1663484155,C;S;V;F,16.6,0x00c000,-36.2,0.00e-0
1663484156,C;S;V;F,16.4,0x00c000,-36.3,0.00e-0
1663484157,C;S;V;F,16.1,0x00c000,-36.6,0.00e-0
1663484158,C;S;V;F,16.1,0x00c000,-36.4,0.00e-0
1663484159,C;S;V;F,16.2,0x00c000,-36.7,0.00e-0
1663484160,C;S;V;F,16.1,0x00c000,-36.6,0.00e-0
1663484161,C;S;V;F,16.0,0x00c000,-36.7,0.00e-0
1663484162,C;S;V;F,15.9,0x00c000,-36.8,0.00e-0
1663484163,C;S;V;F,15.8,0x00c000,-36.8,0.00e-0
1663484164,C;S;V;F,15.8,0x00c000,-37.2,
1663484165,,15.5,0x00c000,-37.2,0.00e-0
1663484166,C;S;V;F,15.2,0x00c000,-37.6,0.00e-0
1663484167,C;S;V;F,14.8,0x00c000,-37.8,0.00e-0
1663484168,C;S;V;F,14.6,0x00c000,-37.9,0.00e-0
1663484169,C;S;V;F,,0x00c000,-38.0,0.00e-0
1663484170,C;S;V;F,14.9,0x00c000,,0.00e-0
1663484171,C;S;V;F,14.6,0x00c000,-38.0,0.00e-0
1663484172,C;S;V;F,14.4,0x00c000,-38.2,0.00e-0
1663484173,C;S;V;F,14.2,0x00c000,-38.4,0.00e-0
1663484174,C;S;V;F,14.1,0x00c000,-38.6,0.00e-0
1663484175,C;S;V;F,14.0,0x00c000,-38.4,0.00e-0
1663484176,C;S;V;F,14.0,0x00c000,-38.6,0.00e-0
1663484177,C;S;V;F,13.8,0x00c000,-38.7,0.00e-0
1663484178,C;S;V;F,14.1,0x00c000,-38.6,0.00e-0
1663484179,C;S;V;F,14.0,0x00c000,-38.3,
1663484180,,14.0,0x00c000,-38.1,0.00e-0
1663484181,C;S;V;F,14.5,0x00c000,-38.0,0.00e-0
1663484182,C;S;V;F,14.1,0x00c000,-38.2,0.00e-0
1663484183,C;S;V;F,13.8,0x00c000,-38.7,0.00e-0
1663484184,C;S;V;F,,0x00c000,-38.3,0.00e-0
1663484185,C;S;V;F,13.5,0x00c000,,0.00e-0
1663484186,C;S;V;F,13.5,0x00c000,-38.7,0.00e-0
1663484187,C;S;V;F,13.3,0x00c000,-38.9,0.00e-0
1663484188,C;S;V;F,13.0,0x00c000,-39.2,0.00e-0
1663484189,C;S;V;F,12.9,0x00c000,-39.5,0.00e-0
1663484190,C;S;V;F,13.0,0x00c000,-39.5,3.03e-7
1663484191,C;S;V;F,13.3,0x00c000,-39.3,3.03e-7
1663484192,C;S;V;F,13.1,0x00c000,-39.3,0.00e-0
1663484193,C;S;V;F,13.3,0x00c000,-39.1,0.00e-0
1663484194,C;S;V;F,13.3,0x00c000,-39.2,1.51e-7
1663484195,,13.4,0x00c000,-38.8,
1663484196,C;S;V;F,13.3,0x00c000,-38.7,1.51e-7
1663484197,C;S;V;F,13.9,0x00c000,-38.4,0.00e-0
1663484198,C;S;V;F,14.3,0x00c000,-38.4,0.00e-0
1663484199,C;S;V;F,,0x00c000,,0.00e-0
1663484200,C;S;V;F,14.5,0x00c000,-37.9,0.00e-0
1663484201,C;S;V;F,14.5,0x00c000,-37.9,0.00e-0
1663484202,C;S;V;F,14.3,0x00c000,-37.9,0.00e-0
1663484203,C;S;V;F,14.5,0x00c000,-38.0,0.00e-0
1663484204,C;S;V;F,13.8,0x00c000,-38.3,0.00e-0
1663484205,C;S;V;F,13.6,0x00c000,-38.7,0.00e-0
1663484206,C;S;V;F,13.3,0x00c000,-38.9,0.00e-0
1663484207,C;S;V;F,12.9,0x00c000,-39.3,0.00e-0
1663484210,C;S;V;F,13.0,0x00c000,-39.2,0.00e-0
1663484211,C;S;V;F,13.0,0x00c000,-39.3,1.51e-7
1663484212,C;S;V;F,13.3,0x00c000,-39.2,0.00e-0
1663484213,C;S;V;F,13.0,0x00c000,-39.2,0.00e-0
1663484214,C;S;V;F,13.1,0x00c000,-39.1,0.00e-0
1663484215,C;S;V;F,13.1,0x00c000,-38.9,1.51e-7
1663484216,C;S;V;F,12.9,0x00c000,-38.9,
1663484217,C;S;V;F,13.0,0x00c000,-39.1,3.03e-7
1663484218,,12.5,0x00c000,-39.3,4.54e-7
1663484219,C;S;V;F,12.3,0x00c000,-39.5,9.09e-7
1663484220,C;S;V;F,12.1,0x00c000,-39.6,1.81e-6
1663484221,C;S;V;F,,0x00c000,-39.6,2.72e-6
1663484222,C;S;V;F,12.0,0x00c000,-39.5,3.02e-6
1663484223,C;S;V;F,12.2,0x00c000,,2.72e-6
1663484224,C;S;V;F,12.7,0x00c000,-38.8,1.05e-6
1663484225,C;S;V;F,12.9,0x00c000,-38.7,4.54e-7
1663484226,C;S;V;F,12.8,0x00c000,-38.8,1.51e-7
1663484227,C;S;V;F,12.7,0x00c000,-39.0,6.06e-7
1663484228,C;S;V;F,12.3,0x00c000,-39.1,1.36e-6
1663484229,C;S;V;F,12.1,0x00c000,-39.4,1.81e-6
1663484230,C;S;V;F,11.6,0x00c000,-39.9,6.65e-6
1663484231,C;S;V;F,11.4,0x00c000,-40.0,1.01e-5
1663484232,C;S;V;F,11.4,0x00c000,-40.0,1.39e-5
1663484233,C;S;V;F,12.0,0x00c000,-39.2,1.25e-5
1663484234,C;S;V;F,12.6,0x00c000,-38.9,
1663484235,,12.9,0x00c000,-38.5,1.81e-6
1663484236,C;S;V;F,13.2,0x00c000,-38.5,1.51e-7
1663484237,C;S;V;F,13.3,0x00c000,-38.6,0.00e-0
1663484238,C;S;V;F,,0x00c000,-38.7,0.00e-0
1663484239,C;S;V;F,13.1,0x00c000,,0.00e-0
1663484240,C;S;V;F,13.3,0x00c000,-38.6,0.00e-0
1663484241,C;S;V;F,13.3,0x00c000,-38.6,0.00e-0
1663484242,C;S;V;F,13.2,0x00c000,-38.8,0.00e-0
1663484243,C;S;V;F,12.8,0x00c000,-39.0,0.00e-0
1663484244,C;S;V;F,12.8,0x00c000,-38.9,1.51e-7
1663484245,C;S;V;F,13.1,0x00c000,-38.7,1.51e-7
1663484246,C;S;V;F,13.7,0x00c000,-38.2,0.00e-0
1663484247,C;S;V;F,14.0,0x00c000,-37.9,0.00e-0
1663484248,C;S;V;F,14.3,0x00c000,-37.9,0.00e-0
1663484249,C;S;V;F,14.4,0x00c000,-37.9,
1663484250,,13.9,0x00c000,-38.3,0.00e-0
1663484251,C;S;V;F,13.5,0x00c000,-38.6,0.00e-0
1663484252,C;S;V;F,13.4,0x00c000,-38.8,0.00e-0
1663484253,C;S;V;F,,0x00c000,-38.7,0.00e-0
1663484254,C;S;V;F,13.6,0x00c000,-38.3,0.00e-0
1663484255,C;S;V;F,14.0,0x00c000,,0.00e-0
1663484256,C;S;V;F,14.5,0x00c000,-37.7,0.00e-0
1663484257,C;S;V;F,15.0,0x00c000,-37.2,0.00e-0
1663484258,C;S;V;F,15.0,0x00c000,-37.1,0.00e-0
1663484259,C;S;V;F,15.0,0x00c000,-37.5,0.00e-0
1663484260,C;S;V;F,14.6,0x00c000,-38.0,0.00e-0
1663484261,C;S;V;F,13.8,0x00c000,-38.8,0.00e-0
1663484262,C;S;V;F,13.0,0x00c000,-39.6,0.00e-0
1663484263,C;S;V;F,12.6,0x00c000,-39.6,
1663484264,,13.1,0x00c000,-39.4,1.05e-6
1663484265,C;S;V;F,13.7,0x00c000,-38.8,1.05e-6
1663484266,C;S;V;F,14.5,0x00c000,-38.0,3.03e-7
1663484267,C;S;V;F,,0x00c000,-37.9,0.00e-0
1663484268,C;S;V;F,14.4,0x00c000,-37.9,0.00e-0
1663484269,C;S;V;F,14.4,0x00c000,,0.00e-0
1663484270,C;S;V;F,14.6,0x00c000,-38.0,0.00e-0
1663484272,,,0x00c000,-37.5,
1663484273,C;S;V;F,14.7,0x00c000,,0.00e-0
1663484274,C;S;V;F,15.4,0x00c000,-37.2,0.00e-0
1663484275,C;S;V;F,15.3,0x00c000,-37.2,0.00e-0
1663484276,C;S;V;F,15.4,0x00c000,-37.2,0.00e-0
1663484277,C;S;V;F,15.3,0x00c000,-37.2,0.00e-0
1663484278,C;S;V;F,15.1,0x00c000,-37.5,0.00e-0
1663484279,C;S;V;F,15.0,0x00c000,-37.5,0.00e-0
1663484280,C;S;V;F,15.3,0x00c000,-37.2,0.00e-0
1663484281,C;S;V;F,15.7,0x00c000,-36.9,0.00e-0
1663484282,C;S;V;F,15.9,0x00c000,-36.5,0.00e-0
1663484283,C;S;V;F,16.1,0x00c000,-36.0,0.00e-0
1663484284,C;S;V;F,16.6,0x00c000,-35.9,
1663484285,C;S;V;F,16.6,0x00c000,-35.5,0.00e-0
1663484286,,17.2,0x00c000,-35.2,0.00e-0
1663484287,C;S;V;F,17.0,0x00c000,-35.2,0.00e-0
1663484288,C;S;V;F,,0x00c000,-35.3,0.00e-0
1663484289,C;S;V;F,17.1,0x00c000,,0.00e-0
1663484290,C;S;V;F,17.2,0x00c000,-35.3,0.00e-0
1663484291,C;S;V;F,17.3,0x00c000,-35.4,0.00e-0
1663484292,C;S;V;F,17.1,0x00c000,-35.5,0.00e-0
1663484293,C;S;V;F,16.8,0x00c000,-35.6,0.00e-0
1663484294,C;S;V;F,17.0,0x00c000,-35.6,0.00e-0
1663484295,C;S;V;F,17.0,0x00c000,-35.5,0.00e-0
1663484296,C;S;V;F,17.0,0x00c000,-35.5,0.00e-0
1663484297,C;S;V;F,17.1,0x00c000,-35.2,0.00e-0
1663484298,,17.0,0x00c000,-35.4,
1663484299,C;S;V;F,16.9,0x00c000,-35.4,0.00e-0
1663484300,C;S;V;F,17.0,0x00c000,-35.3,0.00e-0
1663484301,C;S;V;F,17.0,0x00c000,-35.4,0.00e-0
1663484302,C;S;V;F,,0x00c000,-35.5,0.00e-0
1663484303,C;S;V;F,17.2,0x00c000,,0.00e-0
1663484304,C;S;V;F,17.0,0x00c000,-35.8,0.00e-0
1663484305,C;S;V;F,16.7,0x00c000,-35.8,0.00e-0
1663484306,C;S;V;F,16.7,0x00c000,-35.9,0.00e-0
1663484307,C;S;V;F,16.4,0x00c000,-36.1,0.00e-0
1663484308,C;S;V;F,16.2,0x00c000,-36.0,0.00e-0
1663484309,C;S;V;F,16.5,0x00c000,-36.2,0.00e-0
1663484310,C;S;V;F,16.5,0x00c000,-36.3,0.00e-0
1663484311,C;S;V;F,16.1,0x00c000,-36.4,0.00e-0
1663484312,C;S;V;F,16.5,0x00c000,-36.1,0.00e-0
1663484313,C;S;V;F,16.1,0x00c000,-36.3,
1663484314,C;S;V;F,16.3,0x00c000,-36.1,0.00e-0
1663484315,,16.9,0x00c000,-35.7,0.00e-0
1663484316,C;S;V;F,,0x00c000,-35.8,0.00e-0
1663484317,C;S;V;F,16.7,0x00c000,-35.6,0.00e-0
1663484318,C;S;V;F,16.8,0x00c000,,0.00e-0
1663484319,C;S;V;F,16.8,0x00c000,-35.7,0.00e-0
1663484320,C;S;V;F,16.5,0x00c000,-35.8,0.00e-0
1663484321,C;S;V;F,16.2,0x00c000,-36.4,0.00e-0
1663484322,C;S;V;F,16.2,0x00c000,-36.5,0.00e-0
1663484323,C;S;V;F,16.2,0x00c000,-36.9,0.00e-0
1663484324,C;S;V;F,16.3,0x00c000,-36.3,0.00e-0
1663484325,C;S;V;F,15.8,0x00c000,-36.6,0.00e-0
1663484326,C;S;V;F,15.8,0x00c000,-36.4,0.00e-0
1663484327,C;S;V;F,16.4,0x00c000,-36.4,
1663484328,,16.6,0x00c000,-36.1,0.00e-0
1663484329,C;S;V;F,16.6,0x00c000,-35.6,0.00e-0
1663484330,C;S;V;F,16.7,0x00c000,-35.7,0.00e-0
1663484331,C;S;V;F,16.9,0x00c000,-35.5,0.00e-0
1663484332,C;S;V;F,,0x00c000,-35.5,0.00e-0
1663484333,C;S;V;F,16.9,0x00c000,,0.00e-0
1663484335,,,0x00c000,-34.9,
1663484336,C;S;V;F,17.4,0x00c000,,0.00e-0
1663484337,C;S;V;F,17.2,0x00c000,-35.1,0.00e-0
1663484338,C;S;V;F,17.1,0x00c000,-35.3,0.00e-0
1663484339,C;S;V;F,16.7,0x00c000,-36.1,0.00e-0
1663484340,C;S;V;F,16.6,0x00c000,-36.3,0.00e-0
1663484341,C;S;V;F,16.5,0x00c000,-35.8,0.00e-0
1663484342,C;S;V;F,16.7,0x00c000,-35.4,0.00e-0
1663484343,C;S;V;F,16.7,0x00c000,-35.1,0.00e-0
1663484344,C;S;V;F,17.3,0x00c000,-35.1,0.00e-0
1663484345,C;S;V;F,17.0,0x00c000,-35.2,0.00e-0
1663484346,C;S;V;F,16.7,0x00c000,-35.7,0.00e-0
1663484347,C;S;V;F,16.6,0x00c000,-35.9,
1663484348,,16.6,0x00c000,-35.7,0.00e-0
1663484349,C;S;V;F,16.9,0x00c000,-35.4,0.00e-0
1663484350,C;S;V;F,16.6,0x00c000,-35.6,0.00e-0
1663484351,C;S;V;F,,0x00c000,-35.7,0.00e-0
1663484352,C;S;V;F,16.9,0x00c000,-35.7,0.00e-0
1663484353,C;S;V;F,16.6,0x00c000,,0.00e-0
1663484354,C;S;V;F,16.0,0x00c000,-36.4,0.00e-0
1663484355,C;S;V;F,15.8,0x00c000,-36.6,0.00e-0
1663484356,C;S;V;F,16.2,0x00c000,-36.5,0.00e-0
1663484357,C;S;V;F,16.0,0x00c000,-36.3,0.00e-0
1663484358,C;S;V;F,16.4,0x00c000,-36.0,0.00e-0
1663484359,C;S;V;F,16.7,0x00c000,-36.3,0.00e-0
1663484360,C;S;V;F,16.0,0x00c000,-36.6,0.00e-0
1663484361,C;S;V;F,15.3,0x00c000,-37.2,0.00e-0
1663484362,C;S;V;F,14.8,0x00c000,-37.9,0.00e-0
1663484363,C;S;V;F,15.2,0x00c000,-37.6,0.00e-0
1663484364,C;S;V;F,15.6,0x00c000,-37.2,
1663484365,,15.7,0x00c000,-36.7,0.00e-0
1663484366,C;S;V;F,16.1,0x00c000,-36.3,0.00e-0
1663484367,C;S;V;F,16.0,0x00c000,-36.4,0.00e-0
1663484368,C;S;V;F,15.9,0x00c000,-36.8,0.00e-0
1663484369,C;S;V;F,,0x00c000,-37.2,0.00e-0
1663484370,C;S;V;F,15.5,0x00c000,,0.00e-0
1663484371,C;S;V;F,15.3,0x00c000,-37.2,0.00e-0
1663484372,C;S;V;F,15.9,0x00c000,-36.7,0.00e-0
1663484373,C;S;V;F,16.3,0x00c000,-35.8,0.00e-0
1663484374,C;S;V;F,16.8,0x00c000,-35.6,0.00e-0
1663484375,C;S;V;F,16.8,0x00c000,-35.5,0.00e-0
1663484376,C;S;V;F,16.8,0x00c000,-35.7,0.00e-0
1663484377,C;S;V;F,16.2,0x00c000,-36.4,0.00e-0
1663484378,C;S;V;F,15.8,0x00c000,-37.3,0.00e-0
1663484379,C;S;V;F,15.2,0x00c000,-37.2,
1663484380,,15.7,0x00c000,-37.1,0.00e-0
1663484381,C;S;V;F,15.8,0x00c000,-36.8,0.00e-0
1663484382,C;S;V;F,,0x00c000,-36.4,0.00e-0
1663484383,C;S;V;F,16.1,0x00c000,-36.4,0.00e-0
1663484384,C;S;V;F,16.3,0x00c000,,0.00e-0
1663484385,C;S;V;F,15.8,0x00c000,-36.7,0.00e-0
1663484386,C;S;V;F,15.7,0x00c000,-37.1,0.00e-0
1663484387,C;S;V;F,15.5,0x00c000,-37.5,0.00e-0
1663484388,C;S;V;F,15.3,0x00c000,-37.4,0.00e-0
1663484389,C;S;V;F,15.6,0x00c000,-36.8,0.00e-0
1663484390,C;S;V;F,16.2,0x00c000,-36.0,0.00e-0
1663484391,C;S;V;F,16.5,0x00c000,-35.9,0.00e-0
1663484392,C;S;V;F,16.9,0x00c000,-35.6,0.00e-0
1663484393,C;S;V;F,16.8,0x00c000,-35.7,
1663484394,,16.7,0x00c000,-35.9,0.00e-0
1663484395,C;S;V;F,16.4,0x00c000,-36.1,0.00e-0
1663484396,C;S;V;F,,0x00c000,,0.00e-0
1663484400,,17.0,0x00c000,-35.4,
1663484401,C;S;V;F,17.0,0x00c000,-35.5,0.00e-0
1663484402,C;S;V;F,,0x00c000,-35.6,0.00e-0
1663484403,C;S;V;F,16.7,0x00c000,-36.1,0.00e-0
1663484404,C;S;V;F,16.4,0x00c000,-36.2,0.00e-0
1663484405,C;S;V;F,16.7,0x00c000,,0.00e-0
1663484406,C;S;V;F,16.2,0x00c000,-36.0,0.00e-0
1663484407,C;S;V;F,16.4,0x00c000,-35.8,0.00e-0
1663484408,C;S;V;F,16.5,0x00c000,-36.0,0.00e-0
1663484409,C;S;V;F,16.9,0x00c000,-35.5,0.00e-0
1663484410,C;S;V;F,16.8,0x00c000,-35.6,0.00e-0
1663484411,C;S;V;F,16.8,0x00c000,-35.6,0.00e-0
1663484412,C;S;V;F,16.8,0x00c000,-35.2,0.00e-0
1663484413,C;S;V;F,17.1,0x00c000,-35.3,0.00e-0
1663484414,C;S;V;F,17.1,0x00c000,-35.0,0.00e-0
1663484415,C;S;V;F,17.3,0x00c000,-35.0,0.00e-0
1663484416,,17.2,0x00c000,-34.8,
1663484417,C;S;V;F,17.5,0x00c000,-34.7,0.00e-0
1663484418,C;S;V;F,17.3,0x00c000,-34.7,0.00e-0
1663484419,C;S;V;F,,0x00c000,-34.9,0.00e-0
1663484420,C;S;V;F,17.4,0x00c000,-34.9,0.00e-0
1663484421,C;S;V;F,17.2,0x00c000,,0.00e-0
1663484422,C;S;V;F,17.3,0x00c000,-35.2,0.00e-0
1663484423,C;S;V;F,16.6,0x00c000,-35.5,0.00e-0
1663484424,C;S;V;F,17.0,0x00c000,-35.1,0.00e-0
1663484425,C;S;V;F,17.3,0x00c000,-35.3,0.00e-0
1663484426,C;S;V;F,16.8,0x00c000,-35.6,0.00e-0
1663484427,C;S;V;F,16.8,0x00c000,-35.6,0.00e-0
1663484428,C;S;V;F,16.8,0x00c000,-35.6,0.00e-0
1663484429,C;S;V;F,16.8,0x00c000,-35.2,0.00e-0
1663484430,C;S;V;F,17.1,0x00c000,-35.4,0.00e-0
1663484431,C;S;V;F,16.7,0x00c000,-35.6,0.00e-0
1663484432,C;S;V;F,16.4,0x00c000,-35.3,
1663484433,,16.9,0x00c000,-35.5,0.00e-0
1663484434,C;S;V;F,16.8,0x00c000,-34.9,0.00e-0
1663484435,C;S;V;F,17.2,0x00c000,-34.9,0.00e-0
1663484436,C;S;V;F,,0x00c000,-35.1,0.00e-0
1663484437,C;S;V;F,17.1,0x00c000,,0.00e-0